Location: Celina Division
(33.3022°N, 96.7580°W)
Time: 20:16:42
(UTC+00:00)

N. Korean satellite - Pass Details

Date: 01 December 2022
Orbit: 407 x 442 km, 97.3° (Epoch: 05 February)

Event Time Altitude Azimuth Distance (km) Brightness Sun altitude
Rises 11:39:17 0° 11° (N) 2,514 10.2 -19.2°
Reaches altitude 10° 11:41:21 10° 11° (NNE) 1,629 9.2 -18.7°
Maximum altitude 11:44:51 90° 84° (E) 468 6.4 -18.0°
Drops below altitude 10° 11:48:17 10° 192° (SSW) 1,592 9.2 -17.3°
Sets 11:50:17 0° 192° (SSW) 2,450 10.2 -16.9°
